Regional Weather Roundup
Issued by NWS Wakefield, VA

Home | Current Version | Previous Version | Text Only | Print | Product List | Glossary On
Versions: 1 2 3 4 5 6 7 8 9 10 11 12 13 14 15 16 17 18 19 20 21 22 23 24 25 26 27
000
ASUS41 KAKQ 240915
RWRAKQ

REGIONAL WEATHER ROUNDUP
NATIONAL WEATHER SERVICE WAKEFIELD VA
400 AM EST TUE JAN 24 2017

Note: "fair" indicates few or no clouds below 12,000 feet with no
significant weather and/or obstructions to visibility. * = Denotes
station may not report precipitation (e.g., rain,snow,etc.),
thunder or fog.

VAZ042-051-052>054-056-241000-
NORTHERN VIRGINIA

CITY           SKY/WX    TMP DP  RH WIND       PRES   REMARKS
WASH NATIONAL  LGT RAIN  39  37  92 NW15      29.47S
DULLES         DRIZZLE   36  34  92 NW14      29.50R
FORT BELVOIR   LGT RAIN  37  36  93 NW14      29.47S
QUANTICO       LGT RAIN  38  37  97 N16G29    29.49S
FREDERICKSBRG* CLOUDY    38  38 100 NW13G21   29.48R
STAFFORD*      CLOUDY    36  36 100 NW17G23   29.53R
WARRENTON      DRIZZLE   38  33  82 NW10      29.50R
CULPEPER*      CLOUDY    38  35  90 N10       29.52R
MANASSAS*      NOT AVBL
LEESBURG*      LGT RAIN  37  37 100 NW17      29.52R
WINCHESTER     CLOUDY    34  32  93 NW10      29.53R
FRONT ROYAL*   CLOUDY    36  34  93 NW3       29.53R
LURAY*         CLOUDY    34  34 100 CALM      29.53S
$$

VAZ048-049-060>072-079>083-241000-
CENTRAL AND SOUTH CENTRAL VIRGINIA

CITY           SKY/WX    TMP DP  RH WIND       PRES   REMARKS
RICHMOND       CLOUDY    38  36  92 NW18G25   29.47R
CHESTERFIELD*  CLOUDY    39  21  48 NW10G18   29.49R
PETERSBURG*    CLOUDY    37  36  93 NW10G16   29.48R FOG
HANOVER        CLOUDY    38  34  85 NW8G16    29.49R
TAPPAHANNOCK*  CLOUDY    39  38  97 N8G17     29.45R
QUINTON*       CLOUDY    37  37 100 NW9       29.44S
CHARLOTTSVILLE CLOUDY    41  31  67 NW13      29.49S
GORDONSVILLE*  CLOUDY    38  34  87 CALM      29.50R
ORANGE*        DRIZZLE   37  36  93 NW6       29.52R
LOUISA*        CLOUDY    41  37  87 N8        29.48S
BUMPASS*       CLOUDY    37  35  93 NW3       29.49R
FARMVILLE*     CLOUDY    40  37  88 CALM      29.50R
CREWE*         CLOUDY    38  38 100 NW6       29.50R
FORT PICKETT*  CLOUDY    38  35  88 NW7       29.50R
CHASE CITY*    CLOUDY    40  38  92 CALM      29.51R
CLARKSVILLE*   CLOUDY    41  36  81 NW6       29.51S
SOUTH HILL*    CLOUDY    38  37  94 NW3       29.56R
LAWRENCEVILLE* CLOUDY    37  36  96 NW13G18   29.50R
EMPORIA*       MIX PCPN  37  36  93 W9        29.50R
$$

VAZ088>098-241000-
SOUTHEAST VIRGINIA

CITY           SKY/WX    TMP DP  RH WIND       PRES   REMARKS
NORFOLK        CLOUDY    41  38  89 VRB7      29.39R FOG
VIRGINIA BEACH LGT RAIN  40  38  93 NW21      29.38R FOG
NORFOLK NAVAL  LGT RAIN  41  39  93 NW15      29.41R FOG
WEST POINT*    CLOUDY    39  37  91 NW9       29.44S
SALUDA*        CLOUDY    39  38  97 NW13G20   29.41R
NEWPORT NEWS   LGT RAIN  40  38  93 NW13      29.40S FOG
LANGLEY AFB    CLOUDY    40  39  97 NW9       29.40R
FORT EUSTIS    DRIZZLE   40  37  89 NW12G18   29.39S
WILLIAMSBURG*  CLOUDY    39  39 100 NW9G16    29.43S
HR EXEC AP*    CLOUDY    41  36  81 NW8       29.40S
FRANKLIN*      CLOUDY    39  37  93 NW8G16    29.46R FOG
US460-WAKEFLD  CLOUDY    39  38  96 NW9       29.45R FOG
$$

VAZ020-022-025-037-045-241000-
WEST CENTRAL AND SOUTHWEST VIRGINIA

CITY           SKY/WX    TMP DP  RH WIND       PRES   REMARKS
STAUNTON*      CLOUDY    34  32  92 NE6       29.54S
WAYNESBORO*    PTSUNNY   33  32  96 NW5       29.51S
HOT SPRINGS VA SNOW      30  30 100 W15G23    29.42S VSB 1/4 WCI  19
LYNCHBURG      MOCLDY    38  32  79 NW7       29.52R
DANVILLE       CLOUDY    40  37  89 NW3       29.53R
SOUTH BOSTON*  PTSUNNY   39  38  96 NW6       29.53R
MARTINSVILLE   CLOUDY    39  38  97 CALM      29.55R
ROANOKE        CLOUDY    44  35  70 NW10G18   29.53R
BLACKSBURG     CLOUDY    41  37  84 W10G18    29.57R
DUBLIN*        DRIZZLE   44  38  80 NW13G21   29.55R
MARION*        DRIZZLE   44  40  87 W25G37    29.56F
HILLSVILLE*    CLOUDY    42  37  84 NW16G24   29.50S
RICHLANDS*     HVY RAIN  40  40 100 NW10G17   29.61R
WISE*          LGT RAIN  39  39 100 W13G21    29.66R
ABINGDON*      CLOUDY    45  42  88 W12       29.65R
$$

MDZ021>025-VAZ099-100-241000-
SOUTHERN MARYLAND AND THE DELMARVA PENINSULA

CITY           SKY/WX    TMP DP  RH WIND       PRES   REMARKS
PATUXENT RIVER CLOUDY    39  37  92 NW20      29.41S
BAY BRIDGE APT CLOUDY    37  37 100 N15G22    29.42F
LEONARDTOWN    CLOUDY    37  36  93 NW7G16    29.43S
DOVER          CLOUDY    39  39 100 NW17G24   29.34F
GEORGETOWN     CLOUDY    40  37  89 N13G20    29.34F
EASTON         DRIZZLE   39  37  91 N9        29.43F
CAMBRIDGE      CLOUDY    37  36  93 NW13G18   29.38S
SALISBURY      CLOUDY    39  38  96 N15G23    29.33F
OCEAN CITY     CLOUDY    40  39  97 N17G28    29.31S
WALLOPS ISLAND CLOUDY    40  40 100 N13G26    29.31F
ACCOMACK*      CLOUDY    40  39  96 NW14G22   29.34S FOG
$$

NCZ012>017-030>032-241000-
NORTH CENTRAL AND EASTERN NORTH CAROLINA

CITY           SKY/WX    TMP DP  RH WIND       PRES   REMARKS
ROANOKE RAPIDS NOT AVBL
RALEIGH        CLOUDY    43  37  79 NW5       29.52R
ELIZABETH CITY CLOUDY    41  40  96 W15       29.41R FOG
AHOSKIE*       DRIZZLE   39  38  96 W5        29.48R
EDENTON*       CLOUDY    43  40  89 NW10G21   29.45R FOG
CURRITUCK*     CLOUDY    42  42 100 W8G16     29.40R FOG
KILL DEVIL HLS NOT AVBL
MANTEO         CLOUDY    44  41  91 NW9G24    29.40R
CAPE HATTERAS  LGT RAIN  47  44  90 NW16G29   29.40R FOG
TARBORO*       NOT AVBL
GOLDSBORO      CLOUDY    44  41  90 NW10      29.49R
WASHINGTON     CLOUDY    42  37  84 NW13G18     N/A
GREENVILLE     CLOUDY    41  41 100 NW7       29.53R
NEW BERN       CLOUDY    44  39  82 NW13G20   29.47R
WILMINGTON     CLOUDY    48  45  89 NW12      29.50R
$$

VAZ048-241000-
ELSEWHERE

CITY           SKY/WX    TMP DP  RH WIND       PRES   REMARKS
HARRISBURG PA  FLURRIES  35  35 100 NW12      29.48F
BALTIMORE      CLOUDY    38  37  97 NW10      29.44F
ANNAPOLIS      LGT RAIN  40  37  89 NW12      29.42F
ANDREWS AFB    DRIZZLE   37  36  93 NW16      29.44S
PHILADELPHIA   LGT RAIN  39  36  89 N14       29.39S
HENDERSON NC   CLOUDY    38  33  81 NW3       29.52R
GREENSBORO     MOCLDY    42  41  96 W8        29.52R
ROCKY MOUNT    CLOUDY    42  38  85 NW12G20   29.50S
$$

VAZ100-241000-
MARINE

STATION/POSITION TIME  TEMP    WIND        PRES    WAVE   SWELL
                       AIR SEA DIR/SP/G            HT/PER HT/PER
                 (UTC) (F)     (DEG/KT/KT) (MB)    (FT/S) (FT/S)
CAPE MAY NJ      0848   40 44  340/  9/ 20  991.7F
LEWES DE         0848          330/ 21/ 25  992.8F
OCEAN-CITY-INLET 0848          350/ 19/ 23  992.6R
WACHAPREAGUE VA  0848   40 48  310/  6/ 16  993.1R
THOMAS POINT MD  0900   38 40  330/ 16/ 18   N/A
GOOSES REEF MD   0850   39     330/ 19/ 23  997.0F
COVE POINT MD    0848   38     360/ 25/ 27  996.0F
SOLOMONS ISLAND  0848          330/ 11/ 18   N/A
BISHOPS HEAD MD  0848   40 44  330/ 12/ 19  995.0R
PINEY POINT MD   0848          350/ 19/ 21   N/A
POTOMAC MD       0850   39     330/ 14/ 19  994.8R
CAMBRIDGE MD     0848   39 42  320/ 16/ 20  994.3F
LEWISETTA VA     0848   40 44  340/ 13/ 20  995.8R
RAPPAHANNOCK LGT 0848          330/ 30/ 34  994.5R
STINGRAY PT      0850   40     350/ 16/ 21  995.6R
YORK RVR RNG VA  0848   40     330/ 19/ 21  994.9R
YORKTOWN VA      0848   40 45  320/ 21/ 23  995.3R
JAMESTOWN VA     0850   40     320/ 14/ 17   N/A
DOMINION TERM VA 0848   41     350/ 15/ 18  995.6R
CHES BAY BRIDGE  0848   41 45  330/ 24/ 27  995.0R
CAPE HENRY VA    0848   41     310/ 24/ 27   N/A
WILLOUBY STN VA  0848   40     330/ 17/ 20  996.2R
S CRANEY ISL VA  0848   40     320/ 13/ 17  995.2R
CAPE HENRY BUOY  0842      46                N/A     9/12   5/12
OFFSHORE WE BUOY 0851      47                N/A    10/13   5/13
64NM E OF VA BCH 0850   46 51  330/ 25/ 33  990.6R  12/13  10/13
DUCK PIER NC     0848   44 46  310/ 19/ 26  994.2R
44100 DUCK FRF   0835      50                N/A    10/11   7/11
44056 DUCK FRF   0830      47                N/A     8/13   5/13
OREGON INLET NC  0842   44 50  290/ 13/ 22  994.7R
HATTERAS NC      0848          290/ 22/ 26  995.1R
DIAMOND SHLS NC  0850   51 75  300/ 23/ 29  994.5   10/10  10/10
CAPE LOOKOUT NC  0800   49     300/ 21/ 26  996.0R
$$




USA.gov is the U.S. government's official web portal to all federal, state and local government web resources and services.